Weather History for Pompano Beach, FL

Change the Weather History Date:

Thursday, April 17, 2014

  Actual Average Record
Temperature  
Mean Temperature 78 °F -  
Max Temperature 82 °F 83 °F 94 °F (1972)
Min Temperature 73 °F 65 °F 46 °F (1952)
Cooling Degree Days 12    
Growing Degree Days 28 (Base 50)    
Moisture  
Dew Point 72 °F    
Average Humidity 84    
Maximum Humidity 94    
Minimum Humidity 71    
Precipitation  
Precipitation 0.37 in - - ()
Sea Level Pressure  
Sea Level Pressure 30.09 in    
Wind  
Wind Speed 14 mph (ENE)    
Max Wind Speed 21 mph    
Max Gust Speed 30 mph    
Visibility 9 miles    
Events Rain , Thunderstorm    
Averages and records for this station are not official NWS values.
T = Trace of Precipitation, MM = Missing Value Source: NWS Daily Summary

Daily Weather History Graph

Daily Weather History Graph

Search for Another Location

Airport:

Trip Planner

Search our weather history database for the weather conditions in past years. The results will help you decide how hot, cold, wet, or windy it might be!

Date:

Astronomy

Apr. 17, 2014 Rise Set
Actual Time 6:55 AM EDT 7:45 PM EDT
Civil Twilight 6:31 AM EDT 8:08 PM EDT
Nautical Twilight 6:03 AM EDT 8:36 PM EDT
Astronomical Twilight 5:35 AM EDT 9:05 PM EDT
Moon 10:17 PM EDT (4/17) 8:35 AM EDT (4/17)
Length of Visible Light 13h 37m
Length of Day
12h 49m
Waning Gibbous, 94% of the Moon is Illuminated
Apr 17
Waning Gibbous
Apr 22
Last Quarter
Apr 29
New
May 6
First Quarter
May 14
Full

Hourly Weather History & Observations

Time (EDT) Temp. Heat Index Dew Point Humidity Pressure Visibility Wind Dir Wind Speed Gust Speed Precip Events Conditions
12:07 AM 75.0 °F - - N/A% 30.08 in 8.0 mi ENE 16.1 mph - 0.00 in Rain , Thunderstorm Light Rain
12:38 AM 73.9 °F - - N/A% 30.08 in 4.0 mi East 13.8 mph 21.9 mph 0.01 in Rain Light Rain
12:53 AM 75.0 °F - - N/A% 30.08 in 9.0 mi East 9.2 mph - 0.01 in   Overcast
1:53 AM 75.9 °F - - N/A% 30.06 in 10.0 mi East 11.5 mph - N/A   Partly Cloudy
2:53 AM 75.9 °F - 73.0 °F 91% 30.05 in 10.0 mi East 12.7 mph - N/A   Clear
3:53 AM 75.9 °F - 70.0 °F 82% 30.05 in 10.0 mi East 10.4 mph - N/A   Clear
4:42 AM 75.9 °F - 70.0 °F 82% 30.05 in 10.0 mi East 10.4 mph - N/A   Mostly Cloudy
4:53 AM 75.9 °F - 70.0 °F 82% 30.05 in 10.0 mi East 11.5 mph - N/A   Scattered Clouds
5:53 AM 75.9 °F - 70.0 °F 82% 30.06 in 10.0 mi East 11.5 mph - N/A   Clear
6:53 AM 75.9 °F - 70.0 °F 82% 30.08 in 10.0 mi ENE 10.4 mph - N/A   Clear
7:53 AM 77.0 °F - 70.0 °F 79% 30.10 in 10.0 mi ENE 11.5 mph - N/A   Scattered Clouds
8:53 AM 79.0 °F - 71.1 °F 77% 30.11 in 10.0 mi ENE 12.7 mph - N/A   Clear
9:53 AM 79.0 °F - 71.1 °F 77% 30.13 in 10.0 mi ENE 11.5 mph - N/A   Mostly Cloudy
10:53 AM 81.0 °F 84.9 °F 71.1 °F 72% 30.15 in 10.0 mi East 16.1 mph - N/A   Mostly Cloudy
11:05 AM 82.0 °F 86.7 °F 72.0 °F 71% 30.15 in 10.0 mi ENE 16.1 mph - N/A   Scattered Clouds
11:46 AM 81.0 °F 85.2 °F 72.0 °F 74% 30.15 in 10.0 mi ENE 15.0 mph - N/A Thunderstorm Partly Cloudy
12:20 PM 78.1 °F - 72.0 °F 81% 30.15 in 8.0 mi North - - N/A   Unknown
1:29 PM 77.0 °F - 71.1 °F 82% 30.13 in - North - - 0.01 in Thunderstorm Thunderstorm
1:53 PM 78.1 °F - 72.0 °F 81% 30.13 in 8.0 mi ENE 11.5 mph - 0.01 in   Mostly Cloudy
2:08 PM 79.0 °F - 72.0 °F 79% 30.12 in 10.0 mi ENE 13.8 mph - N/A   Mostly Cloudy
2:29 PM 78.1 °F - 72.0 °F 81% 30.12 in 10.0 mi East 13.8 mph - N/A Thunderstorm Scattered Clouds
2:53 PM 78.1 °F - 72.0 °F 81% 30.12 in 10.0 mi ENE 11.5 mph - N/A Thunderstorm Scattered Clouds
3:05 PM 78.1 °F - 72.0 °F 81% 30.10 in 9.0 mi ENE 13.8 mph - N/A   Mostly Cloudy
3:32 PM 77.0 °F - 71.1 °F 82% 30.10 in 10.0 mi ENE 10.4 mph - N/A   Scattered Clouds
3:53 PM 77.0 °F - 72.0 °F 84% 30.10 in 10.0 mi ENE 10.4 mph - N/A   Scattered Clouds
4:53 PM 77.0 °F - 72.0 °F 84% 30.09 in 10.0 mi ENE 12.7 mph 21.9 mph 0.00 in   Scattered Clouds
5:53 PM 77.0 °F - 72.0 °F 84% 30.07 in 10.0 mi East 15.0 mph 24.2 mph 0.00 in   Scattered Clouds
6:13 PM 77.0 °F - 72.0 °F 84% 30.08 in 7.0 mi ENE 16.1 mph - 0.00 in Rain Light Rain
6:46 PM 75.9 °F - 72.0 °F 87% 30.08 in 10.0 mi ENE 18.4 mph - 0.00 in   Scattered Clouds
6:53 PM 75.9 °F - 72.0 °F 87% 30.09 in 10.0 mi ENE 16.1 mph - 0.00 in Thunderstorm Scattered Clouds
7:10 PM 75.9 °F - 71.1 °F 85% 30.08 in 10.0 mi ENE 15.0 mph - N/A   Scattered Clouds
7:53 PM 77.0 °F - 73.0 °F 88% 30.08 in 2.0 mi ENE 20.7 mph 29.9 mph 0.12 in Rain Rain
7:55 PM 75.9 °F - 73.0 °F 91% 30.07 in 1.2 mi NE 20.7 mph 29.9 mph 0.09 in Rain Heavy Rain
8:05 PM 75.9 °F - 73.0 °F 91% 30.07 in 4.0 mi East 17.3 mph 21.9 mph 0.11 in Rain Light Rain
8:12 PM 75.9 °F - 73.0 °F 91% 30.07 in 8.0 mi East 12.7 mph 21.9 mph 0.11 in   Scattered Clouds
8:53 PM 77.0 °F - 73.0 °F 88% 30.08 in 10.0 mi East 13.8 mph - 0.11 in   Scattered Clouds
9:29 PM 77.0 °F - 72.0 °F 84% 30.10 in 8.0 mi ENE 16.1 mph 20.7 mph 0.00 in Rain Light Rain
9:53 PM 75.9 °F - 73.0 °F 91% 30.10 in 10.0 mi ENE 13.8 mph - 0.03 in   Mostly Cloudy
10:13 PM 75.9 °F - 73.9 °F 94% 30.10 in 2.5 mi East 17.3 mph 23.0 mph 0.05 in Rain Heavy Rain
10:29 PM 75.9 °F - 73.9 °F 94% 30.10 in 9.0 mi ENE 18.4 mph 23.0 mph 0.09 in   Mostly Cloudy
10:53 PM 75.9 °F - - N/A% 30.10 in 10.0 mi East 13.8 mph 20.7 mph 0.09 in   Scattered Clouds
11:53 PM 77.0 °F - - N/A% 30.11 in 10.0 mi ENE 15.0 mph - N/A   Partly Cloudy